This is the latest recevied weather packets stored in our database for station/object SV2HZE-18. If no packets are shown the sender has not sent any weather packets the latest 10 day(s).
| Time | Temp. | Humidity | Pressure | Rain* | Wind** | Luminosity | Snow |
|---|---|---|---|---|---|---|---|
| 1787704572 | 26.11° C | 57% | 1014.7 hPa | - | - | - | - |
| 1787703672 | 26.67° C | 56% | 1014.7 hPa | - | - | - | - |
| 1787702767 | 26.67° C | 53% | 1014.7 hPa | - | - | - | - |
| 1787701866 | 26.67° C | 51% | 1014.7 hPa | - | - | - | - |
| 1787700968 | 27.22° C | 49% | 1014.8 hPa | - | - | - | - |
| 1787700064 | 27.22° C | 50% | 1014.9 hPa | - | - | - | - |
| 1787699163 | 27.22° C | 49% | 1015 hPa | - | - | - | - |
| 1787698261 | 26.67° C | 50% | 1015.1 hPa | - | - | - | - |
| 1787696463 | 27.22° C | 49% | 1015.4 hPa | - | - | - | - |
| 1787695559 | 27.22° C | 51% | 1015.3 hPa | - | - | - | - |
| 1787694661 | 27.22° C | 33% | 1015.1 hPa | - | - | - | - |
| 1787693758 | 27.22° C | 32% | 1015 hPa | - | - | - | - |
| 1787692854 | 27.22° C | 35% | 1014.9 hPa | - | - | - | - |
| 1787691957 | 27.78° C | 37% | 1015 hPa | - | - | - | - |
| 1787691057 | 27.22° C | 38% | 1015.2 hPa | - | - | - | - |
| 1787690154 | 27.78° C | 38% | 1015.3 hPa | - | - | - | - |
| 1787689253 | 27.78° C | 39% | 1015.3 hPa | - | - | - | - |
| 1787688358 | 27.78° C | 41% | 1015.2 hPa | - | - | - | - |
| 1787687452 | 27.78° C | 42% | 1015.2 hPa | - | - | - | - |
| 1787686552 | 27.78° C | 42% | 1015.1 hPa | - | - | - | - |
| 1787685652 | 27.78° C | 42% | 1015.2 hPa | - | - | - | - |
| 1787684752 | 28.33° C | 41% | 1015.2 hPa | - | - | - | - |
| 1787683858 | 28.33° C | 42% | 1015 hPa | - | - | - | - |
| 1787682954 | 28.33° C | 43% | 1015 hPa | - | - | - | - |
| 1787682051 | 28.33° C | 47% | 1014.9 hPa | - | - | - | - |
* Rain since midnight (hover to see other rain measurements)
** Current wind speed in m/s (hover to see current wind gust speed)